Latest Weather Observations for Penrith

IDN60901

Issued at 7:21 pm EDT Wednesday 22 February 2017 (issued every 10 minutes, with the page automatically refreshed every 10 minutes)

About weather observations | Map of Sydney area stations | Latest observations for Sydney area | Other Formats
Station Details ID: 067113 Name: PENRITH LAKES AWS Lat: -33.72 Lon: 150.68 Height: 24.7 m
Data from the previous 72 hours. | See also: Recent months at Penrith
Date/Time
EDT
Temp
°C
App
Temp
°C
Dew
Point
°C
Rel
Hum
%
Delta-T
°C
Wind Press
QNH
hPa
Press
MSL
hPa
Rain since
9am
mm
Dir  Spd
km/h
Gust
km/h
Spd
kts
Gust
kts
22/07:00pm 27.5 26.6 15.8 48 7.2 ENE 15 20 8 11 - - 0.0
22/06:30pm 28.6 27.8 16.2 47 7.7 ENE 15 24 8 13 - - 0.0
22/06:00pm 29.2 28.0 16.0 44 8.2 ENE 17 30 9 16 - - 0.0
22/05:30pm 29.7 27.6 16.1 43 8.5 ENE 22 30 12 16 - - 0.0
22/05:00pm 30.4 28.4 16.4 43 8.8 E 22 39 12 21 - - 0.0
22/04:30pm 31.5 29.9 16.6 40 9.4 E 20 32 11 17 - - 0.0
22/04:00pm 31.8 29.8 16.5 39 9.6 ENE 22 32 12 17 - - 0.0
22/03:30pm 32.6 31.0 13.8 32 11.4 NE 15 20 8 11 - - 0.0
22/03:00pm 32.3 31.1 14.0 33 11.1 NE 13 24 7 13 - - 0.0
22/02:30pm 31.6 30.5 14.3 35 10.5 NE 13 24 7 13 - - 0.0
22/02:00pm 30.8 31.0 14.8 37 9.8 NE 7 20 4 11 - - 0.0
22/01:30pm 30.0 29.1 14.9 39 9.2 NNE 13 24 7 13 - - 0.0
22/01:00pm 29.3 28.1 15.1 42 8.7 NE 15 26 8 14 - - 0.0
22/12:30pm 28.9 27.8 15.4 44 8.3 NNE 15 24 8 13 - - 0.0
22/12:00pm 27.0 25.9 15.4 49 7.1 N 15 22 8 12 - - 0.0
22/11:30am 27.1 27.3 15.8 50 6.9 NE 9 19 5 10 - - 0.0
22/11:00am 26.6 26.4 15.6 50 6.7 NNE 11 19 6 10 - - 0.0
22/10:30am 26.2 26.1 15.9 53 6.3 NNE 11 20 6 11 - - 0.0
22/10:00am 24.5 25.2 15.7 58 5.3 NW 6 7 3 4 - - 0.0
22/09:30am 24.3 25.4 15.5 58 5.3 N 4 9 2 5 - - 0.0
22/09:00am 23.1 24.4 15.2 61 4.7 SSE 2 6 1 3 - - 0.0
22/08:30am 21.5 22.8 15.1 67 3.8 SSE 2 4 1 2 - - 0.0
22/08:00am 20.5 21.5 15.3 72 3.1 SE 4 6 2 3 - - 0.0
22/07:30am 19.8 21.8 15.9 78 2.3 CALM 0 0 0 0 - - 0.0
22/07:00am 18.3 19.4 15.6 84 1.6 S 4 6 2 3 - - 0.0
22/06:30am 18.0 19.0 15.4 85 1.5 SSW 4 6 2 3 - - 0.0
22/06:00am 18.1 19.2 15.5 85 1.5 SSW 4 4 2 2 - - 0.0
22/05:30am 18.0 18.8 15.8 87 1.3 S 6 9 3 5 - - 0.0
22/05:00am 17.7 18.9 15.9 89 1.1 SSE 4 6 2 3 - - 0.0
22/04:30am 17.9 19.9 16.1 89 1.1 CALM 0 0 0 0 - - 0.0
22/04:00am 18.2 20.0 15.5 84 1.6 CALM 0 0 0 0 - - 0.0
22/03:30am 18.6 20.5 15.7 83 1.7 CALM 0 0 0 0 - - 0.0
22/03:00am 18.8 20.3 15.7 82 1.8 SW 2 2 1 1 - - 0.0
22/02:30am 19.2 21.2 16.1 82 1.8 CALM 0 0 0 0 - - 0.0
22/02:00am 19.5 21.5 16.0 80 2.1 CALM 0 0 0 0 - - 0.0
22/01:30am 19.8 21.8 15.9 78 2.3 CALM 0 0 0 0 - - 0.0
22/01:00am 20.7 22.5 15.5 72 3.1 CALM 0 0 0 0 - - 0.0
22/12:30am 21.1 21.9 14.7 67 3.8 NE 4 4 2 2 - - 0.0
22/12:00am 21.6 22.5 15.0 66 3.9 NE 4 6 2 3 - - 0.0
 
Date/Time
EDT
Temp
°C
App
Temp
°C
Dew
Point
°C
Rel
Hum
%
Delta-T
°C
Wind Press
QNH
hPa
Press
MSL
hPa
Rain since
9am
mm
Dir  Spd
km/h
Gust
km/h
Spd
kts
Gust
kts
21/11:30pm 22.4 23.3 15.0 63 4.4 ENE 4 6 2 3 - - 0.0
21/11:00pm 22.7 23.0 15.0 61 4.6 NE 7 9 4 5 - - 0.0
21/10:30pm 22.9 23.5 15.2 62 4.6 N 6 7 3 4 - - 0.0
21/10:00pm 23.1 23.5 15.2 61 4.7 NNE 7 11 4 6 - - 0.0
21/09:30pm 23.5 22.6 14.8 58 5.2 NE 13 20 7 11 - - 0.0
21/09:00pm 23.9 24.1 14.6 56 5.5 NE 7 11 4 6 - - 0.0
21/08:30pm 24.4 23.4 14.5 54 5.9 NE 13 26 7 14 - - 0.0
21/08:00pm 24.6 23.3 13.8 51 6.3 ENE 13 19 7 10 - - 0.0
21/07:30pm 25.0 23.4 13.9 50 6.5 ENE 15 24 8 13 - - 0.0
21/07:00pm 25.9 24.1 13.4 46 7.3 ENE 15 24 8 13 - - 0.0
21/06:30pm 26.9 25.5 13.3 43 8.0 E 13 22 7 12 - - 0.0
21/06:00pm 27.1 25.2 13.1 42 8.2 ESE 15 24 8 13 - - 0.0
21/05:30pm 27.4 25.1 13.0 41 8.5 E 17 28 9 15 - - 0.0
21/05:00pm 28.2 26.0 13.3 40 8.8 ESE 17 24 9 13 - - 0.0
21/04:30pm 28.5 25.9 13.2 39 9.1 ESE 19 26 10 14 - - 0.0
21/04:00pm 28.4 26.5 13.1 39 9.0 SE 15 24 8 13 - - 0.0
21/03:30pm 28.6 26.9 12.5 37 9.4 ESE 13 20 7 11 - - 0.0
21/03:00pm 27.9 26.5 11.0 35 9.6 ESE 9 20 5 11 - - 0.0
21/02:30pm 28.7 27.5 11.7 35 9.8 ENE 9 15 5 8 - - 0.0
21/02:00pm 28.2 26.7 10.4 33 10.0 ENE 9 15 5 8 - - 0.0
21/01:30pm 26.9 26.0 10.6 36 9.2 N 6 11 3 6 - - 0.0
21/01:00pm 27.0 24.9 11.1 37 9.0 N 13 28 7 15 - - 0.0
21/12:30pm 26.4 25.0 10.9 38 8.7 NE 9 24 5 13 - - 0.0
21/12:00pm 25.7 24.6 10.7 39 8.4 ENE 7 19 4 10 - - 0.0
21/11:30am 25.5 23.9 8.1 33 9.3 SE 6 13 3 7 - - 0.0
21/11:00am 24.9 23.0 7.5 33 9.2 SSE 7 13 4 7 - - 0.0
21/10:30am 23.7 22.1 7.8 36 8.4 S 6 9 3 5 - - 0.0
21/10:00am 22.2 21.0 8.0 40 7.4 ESE 4 6 2 3 - - 0.0
21/09:30am 20.4 19.2 8.1 45 6.4 S 4 6 2 3 - - 0.0
21/09:00am 18.5 17.7 8.2 51 5.3 SE 2 2 1 1 - - 0.0
21/08:30am 17.1 16.3 8.3 56 4.5 SSE 2 4 1 2 - - 0.0
21/08:00am 16.4 16.8 11.3 72 2.7 CALM 0 0 0 0 - - 0.0
21/07:30am 15.4 15.7 11.0 75 2.3 CALM 0 0 0 0 - - 0.0
21/07:00am 14.4 14.7 11.0 80 1.8 CALM 0 0 0 0 - - 0.0
21/06:30am 14.2 14.2 9.8 75 2.3 CALM 0 4 0 2 - - 0.0
21/06:00am 14.6 14.5 9.6 72 2.6 CALM 0 0 0 0 - - 0.0
21/05:30am 15.0 14.8 8.9 67 3.1 CALM 0 2 0 1 - - 0.0
21/05:00am 14.8 14.4 8.3 65 3.3 CALM 0 0 0 0 - - 0.0
21/04:30am 14.6 13.4 7.9 64 3.3 WSW 4 6 2 3 - - 0.0
21/04:00am 15.0 13.6 8.7 66 3.2 SW 6 7 3 4 - - 0.0
21/03:30am 15.1 13.6 8.3 64 3.4 S 6 9 3 5 - - 0.0
21/03:00am 15.7 15.3 8.4 62 3.7 CALM 0 4 0 2 - - 0.0
21/02:30am 15.4 14.5 9.1 66 3.2 WSW 4 9 2 5 - - 0.0
21/02:00am 15.5 14.0 8.5 63 3.6 SSW 6 9 3 5 - - 0.0
21/01:30am 15.8 14.8 9.0 64 3.5 SSW 4 6 2 3 - - 0.0
21/01:00am 16.4 15.4 8.9 61 3.9 SW 4 6 2 3 - - 0.0
21/12:30am 16.3 15.5 9.7 65 3.4 SSE 4 6 2 3 - - 0.0
21/12:00am 17.6 17.0 9.0 57 4.5 SW 2 6 1 3 - - 0.0
 
Date/Time
EDT
Temp
°C
App
Temp
°C
Dew
Point
°C
Rel
Hum
%
Delta-T
°C
Wind Press
QNH
hPa
Press
MSL
hPa
Rain since
9am
mm
Dir  Spd
km/h
Gust
km/h
Spd
kts
Gust
kts
20/11:30pm 18.1 17.2 9.2 56 4.7 SW 4 6 2 3 - - 0.0
20/11:00pm 18.5 17.5 8.7 53 5.1 SW 4 6 2 3 - - 0.0
20/10:30pm 19.5 19.5 9.7 53 5.2 CALM 0 0 0 0 - - 0.0
20/10:00pm 20.9 20.1 8.2 44 6.6 NW 2 4 1 2 - - 0.0
20/09:30pm 21.7 20.7 7.2 39 7.5 N 2 4 1 2 - - 0.0
20/09:00pm 22.2 20.5 6.0 35 8.2 NE 4 7 2 4 - - 0.0
20/08:30pm 22.1 19.8 4.7 32 8.6 SSE 6 9 3 5 - - 0.0
20/08:00pm 22.9 20.1 3.4 28 9.4 SW 7 9 4 5 - - 0.0
20/07:30pm 25.2 22.1 1.3 21 11.3 WSW 7 9 4 5 - - 0.0
20/07:00pm 27.1 22.9 -0.9 16 12.9 WSW 11 15 6 8 - - 0.0
20/06:30pm 28.1 24.3 -0.9 15 13.4 WSW 9 15 5 8 - - 0.0
20/06:00pm 28.6 24.6 -2.5 13 14.1 WSW 9 15 5 8 - - 0.0
20/05:30pm 28.6 23.8 -2.5 13 14.1 W 13 20 7 11 - - 0.0
20/05:00pm 28.7 23.5 -2.4 13 14.1 WSW 15 24 8 13 - - 0.0
20/04:30pm 28.7 24.6 -0.5 15 13.7 W 11 19 6 10 - - 0.0
20/04:00pm 28.7 24.4 -1.4 14 13.9 WNW 11 28 6 15 - - 0.0
20/03:30pm 28.7 24.7 0.4 16 13.5 WNW 11 20 6 11 - - 0.0
20/03:00pm 28.1 23.9 -0.9 15 13.4 W 11 22 6 12 - - 0.0
20/02:30pm 27.8 22.5 -0.3 16 13.1 NNW 17 28 9 15 - - 0.0
20/02:00pm 26.9 22.0 -0.2 17 12.6 NW 15 24 8 13 - - 0.0
20/01:30pm 26.7 22.4 1.2 19 12.2 WNW 13 24 7 13 - - 0.0
20/01:00pm 26.5 22.2 3.1 22 11.5 NNW 15 22 8 12 - - 0.0
20/12:30pm 26.0 21.7 3.3 23 11.2 WSW 15 24 8 13 - - 0.0
20/12:00pm 24.8 20.6 1.7 22 11.0 W 13 22 7 12 - - 0.0
20/11:30am 24.3 20.7 3.0 25 10.3 W 11 24 6 13 - - 0.0
20/11:00am 23.2 18.2 3.7 28 9.5 WSW 19 26 10 14 - - 0.0
20/10:30am 22.2 17.5 3.3 29 9.1 WSW 17 32 9 17 - - 0.0
20/10:00am 21.8 17.4 4.8 33 8.4 W 17 28 9 15 - - 0.0
20/09:30am 20.8 17.5 4.4 34 8.0 W 11 19 6 10 - - 0.0
20/09:00am 20.1 17.5 6.1 40 7.0 W 9 13 5 7 - - 0.0
20/08:30am 19.5 16.7 6.9 44 6.4 WNW 11 19 6 10 - - 0.0
20/08:00am 18.5 14.6 7.0 47 5.8 WNW 17 22 9 12 - - 0.0
20/07:30am 17.6 14.4 6.8 49 5.4 WNW 13 17 7 9 - - 0.0
20/07:00am 16.6 15.3 7.5 55 4.6 NE 4 6 2 3 - - 0.0
20/06:30am 16.1 14.7 7.1 55 4.5 WSW 4 6 2 3 - - 0.0
20/06:00am 16.6 14.5 6.7 52 4.9 SW 7 11 4 6 - - 0.0
20/05:30am 16.8 14.9 6.9 52 4.9 WSW 6 7 3 4 - - 0.0
20/05:00am 16.6 15.6 8.8 60 4.0 W 4 6 2 3 - - 0.0
20/04:30am 17.6 16.2 7.4 51 5.1 WNW 4 11 2 6 - - 0.0
20/04:00am 16.8 16.6 9.2 61 3.9 CALM 0 4 0 2 - - 0.0
20/03:30am 16.5 16.0 10.6 68 3.1 NW 4 6 2 3 - - 0.0
20/03:00am 17.3 17.1 9.2 59 4.2 CALM 0 4 0 2 - - 0.0
20/02:30am 18.2 16.7 6.7 47 5.7 SW 4 4 2 2 - - 0.0
20/02:00am 18.3 16.6 7.7 50 5.4 WSW 6 9 3 5 - - 0.0
20/01:30am 18.8 17.6 9.6 55 4.9 W 6 7 3 4 - - 0.0
20/01:00am 19.3 18.2 10.0 55 5.0 W 6 9 3 5 - - 0.0
20/12:30am 20.0 20.4 12.5 62 4.2 WSW 2 6 1 3 - - 0.0
20/12:00am 20.3 21.0 14.4 69 3.4 W 4 9 2 5 - - 0.0
 
Date/Time
EDT
Temp
°C
App
Temp
°C
Dew
Point
°C
Rel
Hum
%
Delta-T
°C
Wind Press
QNH
hPa
Press
MSL
hPa
Rain since
9am
mm
Dir  Spd
km/h
Gust
km/h
Spd
kts
Gust
kts
19/11:30pm 20.5 22.0 16.7 79 2.3 SSW 4 6 2 3 - - 0.0
19/11:00pm 21.0 22.6 17.0 78 2.4 SSE 4 7 2 4 - - 0.0
19/10:30pm 21.4 23.3 16.8 75 2.8 SSE 2 6 1 3 - - 0.0
19/10:00pm 21.7 22.5 17.3 76 2.7 SSE 9 15 5 8 - - 0.0
19/09:30pm 22.1 23.7 17.9 77 2.6 NNW 6 6 3 3 - - 0.0
19/09:00pm 22.7 24.6 18.5 77 2.6 NNW 6 9 3 5 - - 0.0
19/08:30pm 22.9 24.5 18.2 75 2.9 N 7 9 4 5 - - 0.0
19/08:00pm 23.2 24.4 17.4 70 3.6 NNE 7 11 4 6 - - 0.0
19/07:30pm 24.1 24.2 17.4 66 4.2 NE 13 17 7 9 - - 0.0

Latest Capital City Observations: Canberra | Sydney | Melbourne | Brisbane | Adelaide | Perth | Hobart | Darwin

Other Formats:

Comma delimited format used in spreadsheet applications
http://www.bom.gov.au/fwo/IDN60901/IDN60901.94763.axf

JavaScript Object Notation format (JSON) in row-major order
http://www.bom.gov.au/fwo/IDN60901/IDN60901.94763.json